GW3170 Weather Reports


Display with metric or nautical units.
time (UTC)temp
F
wind
direction
speed
MPH
gust
MPH
rain 1hr
in
rain 24hr
in
rain mn
in
humidity
%
barometer
mb
20260904104058 63 0 0.0 0.0 0.00 0.00 0.00 91 1013.9
20260904103558 64 0 0.0 0.0 0.00 0.00 0.00 91 1013.8
20260904103103 64 0 0.0 3.0 0.00 0.00 0.00 91 1013.8
20260904102558 65 0 0.0 3.0 0.00 0.00 0.00 92 1013.8
20260904102056 65 290 0.0 3.0 0.00 0.00 0.00 92 1013.7
20260904101609 64 282 0.0 1.0 0.00 0.00 0.00 92 1013.7
20260904101058 64 271 0.0 1.0 0.00 0.00 0.00 92 1013.6
20260904100558 65 0 0.0 1.0 0.00 0.00 0.00 91 1013.4
20260904095558 65 285 0.0 3.0 0.00 0.00 0.00 92 1013.4
20260904095058 65 0 0.0 2.0 0.00 0.00 0.00 92 1013.3
20260904094604 65 0 0.0 2.0 0.00 0.00 0.00 92 1013.3
20260904094057 65 0 0.0 3.0 0.00 0.00 0.00 92 1013.3
20260904093600 65 289 1.0 3.0 0.00 0.00 0.00 92 1013.3
20260904093101 65 292 0.0 3.0 0.00 0.00 0.00 92 1013.3
20260904092554 65 288 0.0 3.0 0.00 0.00 0.00 92 1013.3
20260904092054 65 292 0.0 2.0 0.00 0.00 0.00 92 1013.4
20260904091605 65 0 0.0 1.0 0.00 0.00 0.00 92 1013.2
20260904091057 65 0 0.0 1.0 0.00 0.00 0.00 91 1013.3
20260904090553 65 0 0.0 0.0 0.00 0.00 0.00 91 1013.3
20260904090059 65 0 0.0 0.0 0.00 0.00 0.00 91 1013.2
20260904085553 65 0 0.0 2.0 0.00 0.00 0.00 91 1013.1
20260904085054 65 0 0.0 2.0 0.00 0.00 0.00 91 1013.0
20260904084604 65 265 0.0 1.0 0.00 0.00 0.00 91 1012.9
20260904084053 65 285 0.0 1.0 0.00 0.00 0.00 91 1012.9
20260904083555 66 0 0.0 1.0 0.00 0.00 0.00 90 1012.9
20260904083110 66 0 0.0 0.0 0.00 0.00 0.00 90 1013.0
20260904082557 66 0 0.0 2.0 0.00 0.00 0.00 90 1012.8
20260904082054 66 0 0.0 2.0 0.00 0.00 0.00 90 1012.8
20260904081606 66 0 0.0 2.0 0.00 0.00 0.00 90 1012.7
20260904081054 66 0 0.0 2.0 0.00 0.00 0.00 90 1012.7
20260904080554 66 0 0.0 2.0 0.00 0.00 0.00 90 1012.7
20260904080109 67 0 1.0 2.0 0.00 0.00 0.00 90 1012.6
20260904075555 67 0 0.0 2.0 0.00 0.00 0.00 90 1012.5
20260904075057 67 293 0.0 2.0 0.00 0.00 0.00 90 1012.5
20260904074615 67 0 0.0 2.0 0.00 0.00 0.00 90 1012.6
20260904074057 67 0 0.0 1.0 0.00 0.00 0.00 90 1012.5
20260904073554 67 0 0.0 1.0 0.00 0.00 0.00 91 1012.5
20260904073109 67 0 0.0 0.0 0.00 0.00 0.00 91 1012.5
20260904072554 67 0 0.0 0.0 0.00 0.00 0.00 91 1012.5
20260904072054 67 0 0.0 0.0 0.00 0.00 0.00 91 1012.3
20260904071604 67 0 0.0 0.0 0.00 0.00 0.00 91 1012.3
20260904071054 67 0 0.0 1.0 0.00 0.00 0.00 91 1012.4
20260904070554 67 0 0.0 1.0 0.00 0.00 0.00 91 1012.4
20260904065555 67 0 0.0 0.0 0.00 0.00 0.00 92 1012.4
20260904065054 66 0 0.0 0.0 0.00 0.00 0.00 92 1012.4
20260904064635 66 0 0.0 0.0 0.00 0.00 0.00 91 1012.4
20260904064054 67 0 0.0 0.0 0.00 0.00 0.00 91 1012.4
20260904063554 67 0 0.0 0.0 0.00 0.00 0.00 91 1012.4
20260904063128 67 0 0.0 0.0 0.00 0.00 0.00 92 1012.4
20260904062553 67 0 0.0 0.0 0.00 0.00 0.00 92 1012.4
20260904062057 67 0 0.0 0.0 0.00 0.00 0.00 92 1012.5
20260904061602 67 0 0.0 0.0 0.00 0.00 0.00 92 1012.5
20260904061055 67 0 0.0 0.0 0.00 0.00 0.00 92 1012.6
20260904060555 67 0 0.0 0.0 0.00 0.00 0.00 93 1012.6
20260904060126 68 0 0.0 0.0 0.00 0.00 0.00 93 1012.5
20260904055554 68 0 0.0 0.0 0.00 0.00 0.00 93 1012.7
20260904055054 68 0 0.0 0.0 0.00 0.00 0.00 93 1012.7
20260904054605 68 0 0.0 0.0 0.00 0.00 0.00 94 1012.7
20260904054054 68 0 0.0 0.0 0.00 0.00 0.00 94 1012.9
20260904053554 68 0 0.0 0.0 0.00 0.00 0.00 94 1013.0
20260904053103 67 0 0.0 0.0 0.00 0.00 0.00 93 1013.0
20260904052554 68 0 0.0 0.0 0.00 0.00 0.00 93 1013.0
20260904052054 68 0 0.0 0.0 0.00 0.00 0.00 93 1012.9
20260904051559 68 0 0.0 0.0 0.00 0.00 0.00 93 1012.9
20260904051056 69 0 0.0 0.0 0.00 0.00 0.00 93 1012.9
20260904050553 69 0 0.0 0.0 0.00 0.00 0.00 93 1013.0
20260904050104 69 0 0.0 1.0 0.00 0.00 0.00 94 1013.1
20260904045554 69 0 0.0 1.0 0.00 0.00 0.00 94 1013.1
20260904045054 69 310 0.0 1.0 0.00 0.00 0.00 94 1013.1
20260904044605 69 0 0.0 1.0 0.00 0.00 0.00 94 1013.1
20260904044055 68 341 0.0 0.0 0.00 0.00 0.00 94 1013.0
20260904043600 68 0 0.0 1.0 0.00 0.00 0.00 94 1013.0
20260904043111 68 0 0.0 1.0 0.00 0.00 0.00 94 1012.9
20260904042559 68 0 0.0 0.0 0.00 0.00 0.00 94 1012.9
20260904042057 68 0 0.0 0.0 0.00 0.00 0.00 93 1012.8
20260904041603 68 0 0.0 0.0 0.00 0.00 0.00 93 1012.8
20260904041054 68 0 0.0 0.0 0.00 0.00 0.00 93 1012.7
20260904040554 68 0 0.0 0.0 0.00 0.00 0.00 93 1012.8
20260904040106 68 0 0.0 0.0 0.00 0.00 0.00 93 1012.8
20260904035554 68 0 0.0 0.0 0.00 0.00 0.00 93 1012.8
20260904035055 68 0 0.0 0.0 0.00 0.00 0.00 93 1012.8
20260904034557 68 0 0.0 0.0 0.00 0.00 0.00 93 1012.7
20260904034054 68 0 0.0 0.0 0.00 0.00 0.00 93 1012.7
20260904033554 68 0 0.0 0.0 0.00 0.00 0.00 93 1012.7
20260904033105 68 0 0.0 0.0 0.00 0.00 0.00 93 1012.8
20260904032554 68 0 0.0 0.0 0.00 0.00 0.00 93 1012.8
20260904032053 68 0 0.0 0.0 0.00 0.00 0.00 93 1012.8
20260904031605 68 0 0.0 0.0 0.00 0.00 0.00 93 1012.9
20260904031053 68 0 0.0 0.0 0.00 0.00 0.00 93 1012.9
20260904030554 68 0 0.0 0.0 0.00 0.00 0.00 93 1012.9
20260904030103 68 0 0.0 0.0 0.00 0.00 0.00 93 1013.0
20260904025558 68 0 0.0 0.0 0.00 0.00 0.00 93 1012.9
20260904025054 68 0 0.0 0.0 0.00 0.00 0.00 93 1012.9
20260904024609 68 0 0.0 0.0 0.00 0.00 0.00 93 1012.9
20260904024055 68 0 0.0 0.0 0.00 0.00 0.00 93 1012.9
20260904023556 68 0 0.0 0.0 0.00 0.00 0.00 93 1013.0
20260904023120 68 0 0.0 0.0 0.00 0.00 0.00 92 1012.9
20260904022557 68 0 0.0 0.0 0.00 0.00 0.00 92 1012.8
20260904022055 68 0 0.0 0.0 0.00 0.00 0.00 92 1013.0
20260904021602 68 0 0.0 0.0 0.00 0.00 0.00 92 1013.2
20260904021054 68 0 0.0 0.0 0.00 0.00 0.00 92 1013.2
20260904020554 68 0 0.0 0.0 0.00 0.00 0.00 92 1013.2
20260904020104 68 0 0.0 0.0 0.00 0.00 0.00 92 1013.2
20260904015553 69 0 0.0 0.0 0.00 0.14 0.00 92 1013.1
20260904015054 69 0 0.0 0.0 0.00 0.14 0.00 92 1013.2
20260904014602 69 0 0.0 0.0 0.00 0.14 0.00 91 1013.2
20260904014054 69 0 0.0 0.0 0.00 0.14 0.00 91 1013.2
20260904013556 69 0 0.0 0.0 0.00 0.14 0.00 91 1013.1
20260904013124 69 0 0.0 0.0 0.00 0.14 0.00 91 1013.1
20260904012559 69 0 0.0 0.0 0.00 0.14 0.00 91 1013.0
20260904012056 69 0 0.0 0.0 0.00 0.14 0.00 91 1013.0
20260904011603 69 0 0.0 0.0 0.00 0.14 0.00 91 1012.8
20260904011054 69 0 0.0 0.0 0.00 0.14 0.00 90 1012.6
20260904010558 70 0 0.0 0.0 0.00 0.14 0.00 90 1012.8
20260904010100 70 0 0.0 0.0 0.00 0.14 0.00 90 1013.0
20260904005552 70 0 0.0 0.0 0.00 0.19 0.00 90 1013.0
20260904005054 70 0 0.0 0.0 0.00 0.19 0.00 90 1013.1
20260904004602 70 0 0.0 0.0 0.00 0.19 0.00 90 1013.1
20260904004054 70 0 0.0 0.0 0.00 0.19 0.00 89 1013.2
20260904003553 70 0 0.0 0.0 0.00 0.19 0.00 89 1013.2
20260904003103 71 0 0.0 0.0 0.00 0.19 0.00 88 1013.1
20260904002555 71 0 0.0 0.0 0.00 0.19 0.00 88 1013.1
20260904002055 71 0 0.0 0.0 0.00 0.19 0.00 88 1013.0
20260904001610 71 0 0.0 0.0 0.00 0.19 0.00 88 1013.0
20260904001053 71 0 0.0 0.0 0.00 0.19 0.00 87 1012.9
20260904000558 72 0 0.0 0.0 0.00 0.19 0.00 87 1012.8
20260904000100 72 0 0.0 0.0 0.00 0.19 0.00 87 1012.7
20260903235556 72 0 0.0 0.0 0.00 0.19 0.00 86 1012.8
20260903235054 72 0 0.0 0.0 0.00 0.19 0.00 86 1012.8
20260903234601 73 0 0.0 0.0 0.00 0.19 0.00 85 1012.7
20260903234054 73 0 0.0 0.0 0.00 0.19 0.00 85 1012.7
20260903233556 73 0 0.0 0.0 0.00 0.19 0.00 84 1012.5
20260903233101 74 0 0.0 0.0 0.00 0.19 0.00 84 1012.6
20260903232555 74 0 0.0 0.0 0.00 0.19 0.00 83 1012.5
20260903232054 74 0 0.0 0.0 0.00 0.19 0.00 83 1012.7
20260903231609 75 0 0.0 0.0 0.00 0.19 0.00 82 1012.8
20260903231054 75 0 0.0 0.0 0.00 0.19 0.00 82 1012.7
20260903230556 75 0 0.0 0.0 0.00 0.19 0.00 81 1012.4
20260903230058 76 0 0.0 0.0 0.00 0.19 0.00 81 1012.5
20260903225556 76 0 0.0 0.0 0.00 0.19 0.00 80 1012.4
20260903225055 76 0 0.0 0.0 0.00 0.19 0.00 80 1012.4
20260903224603 76 0 0.0 0.0 0.00 0.19 0.00 80 1012.5
20260903224053 77 0 0.0 0.0 0.00 0.19 0.00 80 1012.3
20260903223552 77 0 0.0 0.0 0.00 0.19 0.00 79 1012.3
20260903223112 78 0 0.0 0.0 0.00 0.19 0.00 78 1012.2
20260903222556 78 0 0.0 0.0 0.00 0.19 0.00 76 1012.1
20260903222054 78 0 0.0 0.0 0.00 0.19 0.00 75 1012.2
20260903221559 79 0 0.0 1.0 0.00 0.19 0.00 73 1012.3
20260903221053 79 0 0.0 1.0 0.00 0.19 0.00 72 1012.2
20260903220553 80 0 0.0 0.0 0.00 0.19 0.00 71 1012.3
20260903220105 80 0 0.0 1.0 0.00 0.19 0.00 68 1012.3
20260903215555 81 0 0.0 1.0 0.00 0.19 0.00 69 1012.2
20260903215055 82 0 0.0 2.0 0.00 0.19 0.00 67 1012.2
20260903214606 82 0 0.0 2.0 0.00 0.19 0.00 68 1012.1
20260903214054 83 0 0.0 2.0 0.00 0.19 0.00 67 1012.2
20260903213558 83 0 0.0 0.0 0.00 0.19 0.00 70 1012.2
20260903213111 83 0 0.0 1.0 0.00 0.19 0.00 69 1012.1
20260903212556 83 0 0.0 1.0 0.00 0.19 0.00 68 1012.1
20260903212057 83 0 0.0 1.0 0.00 0.19 0.00 69 1012.1
20260903211601 84 0 0.0 2.0 0.00 0.19 0.00 72 1011.9
20260903211055 84 0 0.0 2.0 0.00 0.19 0.00 69 1012.0
20260903210553 85 283 0.0 0.0 0.00 0.19 0.00 67 1012.2
20260903210104 84 0 0.0 0.0 0.00 0.19 0.00 70 1012.1
20260903205555 84 0 0.0 0.0 0.00 0.19 0.00 71 1012.2
20260903205054 83 0 0.0 0.0 0.00 0.19 0.00 71 1012.4
20260903204559 83 0 0.0 0.0 0.00 0.19 0.00 73 1012.6
20260903204053 83 0 0.0 0.0 0.00 0.19 0.00 70 1012.5
20260903203555 83 0 0.0 0.0 0.00 0.19 0.00 72 1012.3
20260903203100 83 0 0.0 0.0 0.00 0.19 0.00 69 1012.3
20260903202553 83 0 0.0 0.0 0.00 0.19 0.00 70 1012.5
20260903202054 83 0 0.0 1.0 0.00 0.19 0.00 70 1012.5
20260903201601 83 0 0.0 1.0 0.00 0.19 0.00 68 1012.7
20260903201059 84 0 0.0 1.0 0.00 0.19 0.00 66 1012.7
20260903200553 84 0 0.0 2.0 0.00 0.19 0.00 66 1012.5
20260903195553 83 0 1.0 4.0 0.00 0.19 0.00 65 1012.5
20260903195054 84 263 0.0 3.0 0.00 0.19 0.00 66 1012.5
20260903194602 84 0 0.0 1.0 0.00 0.19 0.00 64 1012.6
20260903194054 84 0 0.0 4.0 0.00 0.19 0.00 65 1012.8
20260903193554 85 0 1.0 4.0 0.00 0.19 0.00 65 1012.8
20260903193105 85 323 0.0 4.0 0.00 0.19 0.00 62 1012.8
20260903192556 84 294 1.0 4.0 0.00 0.19 0.00 64 1012.9
20260903192053 85 264 1.0 4.0 0.00 0.19 0.00 61 1012.9
20260903191605 85 0 0.0 2.0 0.00 0.19 0.00 62 1012.9
20260903191056 84 0 0.0 3.0 0.00 0.19 0.00 62 1012.9
20260903190554 84 0 1.0 3.0 0.00 0.19 0.00 63 1013.1
20260903190110 85 304 1.0 3.0 0.00 0.19 0.00 63 1013.1
20260903185556 85 0 0.0 5.0 0.00 0.19 0.00 62 1013.0
20260903185054 86 0 0.0 5.0 0.00 0.19 0.00 63 1013.1
20260903184608 86 286 0.0 5.0 0.00 0.19 0.00 60 1013.1
20260903184054 86 0 0.0 2.0 0.00 0.19 0.00 61 1013.1
20260903183557 86 0 0.0 2.0 0.00 0.19 0.00 62 1013.2
20260903183107 86 278 0.0 3.0 0.00 0.19 0.00 59 1013.2
20260903182554 86 0 0.0 3.0 0.00 0.19 0.00 62 1013.1
20260903182055 85 281 0.0 3.0 0.00 0.19 0.00 63 1013.2
20260903181603 84 0 0.0 3.0 0.00 0.19 0.00 64 1013.1
20260903181054 84 0 0.0 4.0 0.00 0.19 0.00 64 1013.0
20260903180554 83 287 0.0 5.0 0.00 0.19 0.00 66 1013.2
20260903180112 83 0 1.0 5.0 0.00 0.19 0.00 64 1013.3
20260903175556 83 297 1.0 5.0 0.00 0.19 0.00 63 1013.3
20260903175054 83 296 1.0 5.0 0.00 0.19 0.00 65 1013.2
20260903174559 83 278 1.0 4.0 0.00 0.19 0.00 61 1013.2
20260903174057 83 0 2.0 4.0 0.00 0.19 0.00 62 1013.2
20260903173554 83 0 0.0 3.0 0.00 0.19 0.00 66 1013.2
20260903173111 83 0 0.0 3.0 0.00 0.19 0.00 66 1013.2
20260903172552 83 0 1.0 3.0 0.00 0.19 0.00 68 1013.3
20260903172052 83 0 0.0 3.0 0.00 0.19 0.00 66 1013.3
20260903171603 82 0 1.0 3.0 0.00 0.19 0.00 67 1013.4
20260903171056 82 0 0.0 3.0 0.00 0.19 0.00 68 1013.3
20260903170556 81 240 1.0 3.0 0.00 0.19 0.00 71 1013.4
20260903170109 81 0 1.0 3.0 0.00 0.19 0.00 74 1013.2
20260903165556 80 0 0.0 6.0 0.00 0.19 0.00 73 1013.3
20260903165055 80 264 0.0 6.0 0.00 0.19 0.00 71 1013.3
20260903164607 80 266 1.0 6.0 0.00 0.19 0.00 72 1013.3
20260903164056 80 0 3.0 6.0 0.00 0.19 0.00 71 1013.4
20260903163556 81 245 2.0 6.0 0.00 0.19 0.00 72 1013.4
20260903163136 81 0 1.0 5.0 0.00 0.19 0.00 74 1013.5
20260903162557 80 0 0.0 3.0 0.00 0.19 0.00 74 1013.7
20260903162056 80 264 1.0 4.0 0.00 0.19 0.00 74 1013.5
20260903161600 80 245 1.0 5.0 0.00 0.19 0.00 75 1013.6
20260903161055 79 252 1.0 5.0 0.00 0.19 0.00 75 1013.6
20260903160554 79 269 2.0 5.0 0.00 0.19 0.00 74 1013.6
20260903160108 79 262 1.0 4.0 0.00 0.19 0.00 76 1013.7
20260903155556 78 307 1.0 4.0 0.00 0.25 0.00 76 1013.8
20260903155056 78 285 1.0 5.0 0.00 0.25 0.00 78 1013.8
20260903154610 78 0 2.0 5.0 0.00 0.25 0.00 78 1013.8
20260903154055 77 261 1.0 5.0 0.00 0.25 0.00 79 1013.9
20260903153559 77 254 2.0 6.0 0.00 0.25 0.00 79 1013.8
20260903153109 77 0 2.0 6.0 0.00 0.25 0.00 79 1013.8
20260903152559 77 295 2.0 5.0 0.00 0.25 0.00 79 1013.9
20260903152058 77 300 1.0 6.0 0.00 0.25 0.00 80 1013.9
20260903151603 76 286 1.0 6.0 0.00 0.25 0.00 80 1014.0
20260903151059 76 286 1.0 5.0 0.00 0.25 0.00 79 1014.0
20260903150557 76 306 0.0 5.0 0.00 0.25 0.00 81 1014.0
20260903150105 76 319 1.0 6.0 0.00 0.25 0.00 83 1014.1
20260903145559 76 238 3.0 6.0 0.00 0.93 0.00 84 1014.1
20260903145057 75 221 3.0 6.0 0.00 0.93 0.00 86 1014.1
20260903144600 75 270 3.0 5.0 0.00 0.93 0.00 86 1014.0
20260903144058 74 245 1.0 4.0 0.00 0.93 0.00 88 1013.9
20260903143556 74 256 1.0 5.0 0.00 0.93 0.00 89 1013.9
20260903143105 73 306 2.0 6.0 0.00 0.93 0.00 90 1014.0
20260903142556 73 283 1.0 6.0 0.00 0.93 0.00 89 1014.1
20260903142057 72 283 2.0 5.0 0.00 0.93 0.00 89 1014.1
20260903141607 72 296 2.0 5.0 0.00 0.93 0.00 90 1014.1
20260903141056 72 241 1.0 4.0 0.00 0.93 0.00 90 1014.0
20260903140556 72 296 1.0 5.0 0.00 0.93 0.00 90 1014.0
20260903140107 72 285 1.0 5.0 0.00 0.93 0.00 90 1014.1
20260903135556 71 235 1.0 4.0 0.00 1.09 0.00 90 1014.1
20260903135056 71 279 2.0 4.0 0.00 1.09 0.00 90 1014.1
20260903134628 71 274 1.0 4.0 0.00 1.09 0.00 91 1014.1
20260903134100 71 231 1.0 4.0 0.00 1.09 0.00 91 1014.1
20260903133557 71 300 1.0 6.0 0.00 1.09 0.00 91 1014.0
20260903133104 71 279 2.0 6.0 0.00 1.09 0.00 91 1014.0
20260903132555 71 302 0.0 4.0 0.00 1.09 0.00 91 1014.1
20260903132056 71 304 2.0 4.0 0.00 1.09 0.00 91 1014.1
20260903131600 71 264 1.0 3.0 0.00 1.09 0.00 92 1014.0
20260903131053 71 259 1.0 3.0 0.00 1.09 0.00 92 1014.0
20260903130555 70 251 0.0 4.0 0.00 1.09 0.00 92 1014.1
20260903130109 70 268 1.0 4.0 0.00 1.09 0.00 92 1014.1
20260903125557 70 231 2.0 4.0 0.00 1.09 0.00 92 1014.1
20260903125056 70 214 1.0 3.0 0.00 1.09 0.00 92 1014.1
20260903124610 70 262 0.0 3.0 0.00 1.09 0.00 92 1014.1
20260903124055 70 242 1.0 3.0 0.00 1.09 0.00 92 1014.1
20260903123556 70 245 0.0 2.0 0.00 1.09 0.00 92 1014.0
20260903123103 69 0 0.0 2.0 0.00 1.09 0.00 92 1013.9
20260903122555 69 0 0.0 2.0 0.00 1.09 0.00 93 1013.9
20260903122056 69 233 0.0 2.0 0.00 1.09 0.00 93 1013.8
20260903121602 69 0 0.0 2.0 0.00 1.09 0.00 93 1013.8
20260903121055 69 231 0.0 2.0 0.00 1.09 0.00 93 1013.9
20260903120559 69 0 0.0 2.0 0.00 1.09 0.00 93 1013.9
20260903120131 69 0 0.0 2.0 0.00 1.09 0.00 93 1013.9
20260903115552 69 0 0.0 1.0 0.00 1.09 0.00 93 1013.9
20260903115057 69 0 0.0 1.0 0.00 1.09 0.00 93 1013.8
20260903114605 69 0 0.0 2.0 0.00 1.09 0.00 93 1013.8
20260903114053 69 0 0.0 2.0 0.00 1.09 0.00 93 1013.8
20260903113553 69 257 0.0 2.0 0.00 1.09 0.00 93 1013.7
20260903113103 69 0 0.0 2.0 0.00 1.09 0.00 93 1013.6
20260903112556 69 0 0.0 0.0 0.00 1.09 0.00 93 1013.5
20260903112054 69 0 0.0 0.0 0.00 1.09 0.00 93 1013.4
20260903111601 69 0 0.0 0.0 0.00 1.09 0.00 93 1013.4
20260903111056 68 0 0.0 1.0 0.00 1.09 0.00 93 1013.4
20260903110555 69 0 0.0 1.0 0.00 1.09 0.00 94 1013.3
20260903110105 68 0 0.0 0.0 0.00 1.09 0.00 94 1013.2
20260903105553 68 0 0.0 0.0 0.00 1.09 0.00 94 1013.0
20260903105053 68 0 0.0 0.0 0.00 1.09 0.00 94 1013.1
20260903104609 68 0 0.0 1.0 0.00 1.09 0.00 94 1013.1